www.pogodaiklimat.ru

Погода и климат >> Архив погоды >> Россия >> Оренбургская область >> Новосергиевка


ПОГОДА в Новосергиевке

  • Прогноз погоды в Новосергиевке
  • Монитор погоды в Новосергиевке

АРХИВ ПОГОДЫ в Новосергиевке

Время (UTC), дата Ветер
(напр.,м/с)
 
Видим.   Явления Облачность Т
(С)
Тd
(С)
f
(%)
Тe
(С)
Тes
(С)
Комфортность P
(гПа)
Po
(гПа)
Тmin
(С)
Tmax
(С)
R
(мм)
R24
(мм)
S
(см)
18 12.06 штиль 0 10 км ясно +21.9 +11.3 51 +24 +24 комфорт 1011.6 995.2
21 12.06 штиль 0 10 км ясно +16.1 +11.0 72 +16 +16 1011.8 995.2
00 13.06 С 1 20 км 8/0 2000 м
[Ac trans Ci]
+16.4 +10.2 67 +17 +17 1012.4 995.8
03 13.06 С 2 20 км в посл. час ливневой дождь 10/8 600 м
[Cb cap Ac und]
+14.8 +12.4 86 +14 +15 1013.1 996.4 +13.8 0.4
06 13.06 С 3 20 км в посл. час ливневой дождь 10/10 630 м
[Cb cap]
+14.9 +13.2 90 +14 +14 1015.0 998.2 +13.5
09 13.06 С 6-10
{10}
20 км 3/0 2000 м
[Ac cuf]
+18.9 +6.7 45 +19 +24 1014.7 998.1
12 13.06 С 5
{12}
20 км ясно +19.4 +3.9 36 +20 +24 1014.7 998.2
15 13.06 С 5
{11}
20 км ясно +17.5 +3.0 38 +17 +18 1015.7 999.0 +19.6 3
18 13.06 С 3 10 км ясно +12.3 +3.2 54 +11 +11 1018.0 1001.0
21 13.06 штиль 0 10 км ясно +8.5 +2.6 66 +8 +8 1019.2 1001.9
00 14.06 СЗ 1 20 км ясно +5.4 +2.4 81 +4 +4 1019.7 1002.2
03 14.06 СЗ 1 20 км 8/6 1000 м
[Sc Ac As Ci sp]
+10.1 +4.1 66 +10 +11 1020.2 1003.0 +4.9
06 14.06 С 4
{10}
20 км 8/8 600 м
[Cu hum]
+15.0 +1.6 40 +14 +16 1019.4 1002.5
09 14.06 С 4 20 км 4/0
[Ci fib]
+18.2 +2.3 35 +18 +29 1017.7 1001.0
12 14.06 С 4
{10}
20 км 8/0 2000 м
[Ac cast Ci sp]
+19.8 +1.3 29 +20 +24 1016.2 999.7
15 14.06 С 3 20 км 10/3 600 м
[Cu hum Ac As]
+18.1 +1.1 32 +18 +18 1015.2 998.5 +20.0
18 14.06 СЗ 1 10 км 10/8 600 м
[Sc Ac und]
+14.7 +3.1 46 +15 +15 1014.7 997.9
21 14.06 СЗ 1 10 км слаб. ливневой дождь 10/8 600 м
[Cb cap Ac und]
+13.7 +4.1 52 +14 +14 1013.9 997.0
00 15.06 штиль 0 20 км слаб. ливневой дождь 10/8 600 м
[Cb cap Ac und]
+10.5 +7.7 83 +10 +10 1013.9 996.9
03 15.06 СВ 1 20 км 10/8 600 м
[Cb cap Ac und]
+11.0 +8.5 85 +11 +11 1013.2 996.2 +9.6 0.3
06 15.06 В 2 20 км 8/8 600 м
[Cb cap]
+15.1 +7.3 60 +15 +18 1013.6 996.8
09 15.06 С 1 20 км 8/8 600 м
[Cb cap]
+17.1 +6.1 48 +18 +22 1013.3 996.6
12 15.06 С 3 20 км 6/6 600 м
[Sc diur, vesp]
+18.7 +4.5 39 +19 +22 1012.4 995.9
15 15.06 В 1 20 км 6/6 600 м
[Sc diur, vesp]
+18.9 +4.4 38 +20 +21 1012.0 995.5 +20.0
18 15.06 штиль 0 10 км 3/3
[Sc]
+13.1 +5.8 61 +13 +13 1012.5 995.6
21 15.06 штиль 0 10 км 8/0 2000 м
[Ac trans]
+9.7 +5.1 73 +9 +9 1012.8 995.7
00 16.06 ЮВ 1 20 км 9/8 600 м
[Cb cap Ac trans]
+7.2 +5.2 87 +6 +6 1012.5 995.3
03 16.06 штиль 0 20 км 8/3 600 м
[Sc Ac trans Ci fib]
+11.2 +7.2 76 +11 +13 1012.2 995.2 +7.1
06 16.06 СВ 2 20 км 8/5 1000 м
[Cu med, cong Ci sp]
+19.6 +5.9 41 +21 +27 комфорт 1011.2 994.7
09 16.06 СЗ 2 20 км 8/8 600 м
[Cu Sc]
+21.6 +4.0 32 +22 +25 комфорт 1010.4 994.0
12 16.06 С 2 20 км 6/4 1000 м
[Cu hum Ac trans Ci sp]
+22.2 +4.4 31 +22 +27 комфорт 1009.3 993.0
15 16.06 С 2 20 км 6/3 600 м
[Sc Ac trans]
+21.3 +5.1 35 +22 +22 комфорт 1009.1 992.7 +22.5
18 16.06 СЗ 1 10 км 9/9 600 м
[Sc]
+17.7 +6.5 48 +19 +19 1009.7 993.1
21 16.06 С 1 10 км 8/8 600 м
[Sc]
+15.5 +6.5 55 +16 +16 1009.8 993.1
00 17.06 штиль 0 20 км 3/3 600 м
[Sc]
+9.3 +6.5 83 +9 +9 1010.7 993.6
03 17.06 СЗ 1 20 км ясно +15.3 +9.5 68 +16 +20 1011.4 994.6 +8.0
06 17.06 С 3 20 км 8/8 1000 м
[Cu hum]
+17.9 +7.9 52 +18 +20 1011.9 995.4
09 17.06 СЗ 3 20 км 3/1 1000 м
[Cu hum Ci fib]
+21.9 +5.2 34 +22 +34 комфорт 1011.6 995.2
12 17.06 СЗ 3 20 км ясно +23.4 +3.7 28 +23 +31 комфорт 1010.8 994.5
15 17.06 С 3 20 км 1/1 600 м
[Sc diur, vesp]
+23.5 +4.6 29 +23 +24 комфорт 1010.3 994.0 +24.0
18 17.06 штиль 0 10 км 1/1 600 м
[Sc]
+15.1 +7.3 60 +15 +15 1011.1 994.4
21 17.06 штиль 0 10 км 1/0 2000 м
[Ac trans]
+11.4 +6.9 74 +11 +11 1011.1 994.1
00 18.06 штиль 0 20 км 3/0 2000 м
[Ac trans Ci fib]
+12.8 +8.0 73 +12 +12 1011.1 994.2
03 18.06 СЗ 1 20 км 4/0
[Ci fib]
+19.0 +10.1 56 +21 +25 комфорт 1011.3 994.8 +10.5
06 18.06 СЗ 2 20 км 8/5 600 м
[Cu med, cong Ac trans Ci sp]
+25.2 +9.7 38 +26 +31 жарко 1010.6 994.4
09 18.06 З 4 20 км 8/8 600 м
[Sc diur, vesp]
+25.9 +8.2 33 +26 +28 жарко 1010.3 994.1
12 18.06 С 3 20 км 8/8 600 м
[Sc diur, vesp Ci fib]
+26.9 +8.3 31 +27 +28 жарко 1009.3 993.2
15 18.06 СЗ 1 20 км 8/6 600 м
[Sc diur, vesp Ci fib]
+26.0 +8.4 33 +26 +27 жарко 1008.8 992.7 +28.0
18 18.06 штиль 0 10 км 8/8 600 м
[Sc]
+19.5 +10.4 56 +20 +20 1010.0 993.5
21 18.06 С 1 10 км 9/9 600 м
[Sc]
+16.8 +11.1 69 +18 +18 1010.0 993.4
00 19.06 Ю 1 20 км 10/8 600 м
[Sc Ac As]
+16.4 +10.5 68 +17 +17 1010.2 993.5
03 19.06 СВ 1 20 км 8/8 600 м
[Cu Sc Ac cast]
+18.3 +10.8 62 +20 +21 1009.9 993.4 +15.2
06 19.06 штиль 0 20 км {ливн. осадки} 8/8 1000 м
[Cu Sc]
+23.5 +13.7 54 +26 +29 жарко 1009.7 993.5
09 19.06 Ю 2 20 км 8/6 600 м
[Cu med, cong Ci sp]
+27.6 +10.2 34 +28 +34 жарко 1008.6 992.6
12 19.06 С 3
{11}
20 км в посл. час ливневой дождь 9/8 600 м
[Cb cap Ac cuf]
+22.1 +13.7 59 +25 +26 комфорт 1009.0 992.8
15 19.06 С 3 10 км слаб. ливневой дождь 10/10 720 м
[Cb cap]
+19.5 +16.0 80 +22 +22 комфорт 1010.5 994.0 +29.5 1

 

Местоположение метеостанции Новосергиевка (Оренбургская область, Россия): широта 52.08 долгота 53.63 высота над уровнем моря 139 м.

В архиве по умолчанию представлена погода в Новосергиевке за последнюю неделю. Архивные данные за месяц целиком и за предыдущие месяцы, начиная с января 2011 года, Вы можете получить, выбрав интересующий диапазон дат из раскрывающегося списка и нажав кнопку "Ввод!".


*Определитесь, кто Вы:
робот инопланетянин человек

Внимание! Время в таблицах - всемирное. Для получения местного времени необходимо прибавить поправку, которая равна 5 ч.

Смотрите также архив погоды в соседних городах и на ближайших метеорологических станциях:

Погода в Сорочинске (Оренбургская область, Россия) (52 км)
Погода в Илеке (Оренбургская область, Россия) (65 км)
Погода в Татарской Каргале (Оренбургская область, Россия) (107 км)
Погода в Аксае (Западно-Казахстанская область, Казахстан) (109 км)
Погода в Оренбурге (Оренбургская область, Россия) (110 км)
Погода в Чингирлау (Западно-Казахстанская область, Казахстан) (116 км)
Погода в Шарлыке (Оренбургская область, Россия) (121 км)
Погода в Бузулуке (Оренбургская область, Россия) (126 км)
Погода в Первомайском (Оренбургская область, Россия) (137 км)
Погода в Соль-Илецк (Оренбургская область, Россия) (141 км)

Пояснения к столбцам:

Ветер - указаны скорость ветра в м/с - средняя за 10 мин, порывы в срок и между сроками (в фигурных скобках) и направление, откуда дует ветер: С - северный, СВ - северо-восточный, В - восточный, ЮВ - юго-восточный, Ю - южный, ЮЗ - юго-западный, З - западный, СЗ - северо-западный.
Видимость - горизонтальная дальность видимости в метрах или километрах. При видимости от 1 до 10 км при отсутствии осадков обычно наблюдается дымка, при ухудшении видимости до 1 км и менее - туман. В сухую погоду видимость может ухудшаться дымом, пылью или мглою.
Явления - указаны атмосферные явления, наблюдавшиеся в срок или в последний час перед сроком; фигурными скобками обозначены явления, наблюдавшиеся между сроками (за 1-3 часа до срока); квадратными скобками обозначены град или гололедные отложения с указанием их диаметра в мм.
Облачность - указаны через наклонную черту общая и нижняя облачность в баллах и высота нижней границы облаков в метрах; квадратными скобками обозначены формы облаков: Ci - перистые, Cs - перисто-слоистые, Cc - перисто-кучевые, Ac - высококучевые, As - высокослоистые, Sc - слоисто-кучевые, Ns - слоисто-дождевые, Cu - кучевые, Cb - кучево-дождевые. Подробнее классификацию облаков см. в Атласе облаков (PDF).
T - Температура воздуха - температура, измеренная на высоте 2 м над землей.
Td - Температура точки росы - температура, при понижении до которой содержащийся в воздухе водяной пар достигнет насыщения.
f - Относительная влажность воздуха - влажноcть воздуха, измеренная на высоте 2 м над землей.
Te - Эффективная температура - температура, которую ощущает одетый по сезону человек в тени. Характеристика душности погоды. При расчете учитывается влияние влажности воздуха и скорости ветра на теплоощущения человека.
Tes - Эффективная температура на солнце - температура, которую ощущает человек, с поправкой на солнечный нагрев. Характеристика знойности погоды. Зависит от высоты солнца над горизонтом, облачности и скорости ветра. Ночью, в пасмурную погоду, а также при ветре 12 м/с и более поправка равна нулю.
P - Атмосферное давление - приведенное к уровню моря атмосферное давление.
Po - Атмосферное давление - измеренное на уровне метеостанции атмосферное давление.
Tmin - Минимальная температура - минимум температуры воздуха на высоте 2 м над землей.
Tmax - Максимальная температура - максимум температуры воздуха на высоте 2 м над землей.
R - Количество осадков - Количество выпавших осадков за период времени, мм. При наведении курсора мыши на число - период времени, за который выпало указанное количество осадков.
R24 - Количество осадков - Количество выпавших осадков за 24 часа, мм.
S - Снежный покров - Высота снежного покрова, см. При наведении курсора мыши на число - состояние снежного покрова и степень покрытия местности в баллах.